SCP
1 1 1 1 1 1 1 1 1 1 1 1 1 1 1 1 1 1 1 1 1 1 1 1 1 1 0 0 0 0 0 0 0 0 0 0 0 0 0 0 0 0 0
1 1 1 1 1 1 1 1 1 1 1 1 1 1 1 1 1 1 1 1 1 1 1 1 1 1 0 0 0 0 0 0 0 0 0 0 0 0 0 0 0 0 0
0 0 1 1 1 1 1 1 1 1 1 1 1 1 1 1 1 1 1 1 1 1 0 0 0 0 0 0 0 0 0 0 0 0 0 0 0 0 0 0 0 0 0
0 1 1 1 1 1 1 1 1 1 1 1 1 1 1 1 1 1 1 1 1 0 0 0 0 0 0 0 0 0 0 0 0 0 0 0 0 0 0 0 0 0 0
0 1 1 1 1 1 1 1 1 1 1 1 1 0 0 0 1 1 1 1 0 0 0 0 0 0 0 0 0 0 0 0 0 0 0 0 0 0 0 0 0 0 0
0 1 1 1 1 1 1 1 1 1 1 0 0 0 0 0 0 1 1 0 0 0 0 0 0 0 0 0 0 0 0 0 0 0 0 0 0 0 0 0 0 0 0
0 0 0 0 0 1 1 1 1 1 0 0 0 0 0 0 0 0 0 0 0 0 0 0 0 0 0 0 0 0 0 0 0 0 0 0 0 0 0 0 0 0 0
0 0 0 0 0 0 0 0 0 0 0 0 0 0 0 0 0 0 0 0 0 0 0 0 0 0 0 0 0 0 0 0 0 0 0 0 0 0 0 0 0 0 0
0 0 0 0 0 0 0 0 0 0 0 0 0 0 0 0 0 0 0 0 0 0 0 0 0 0 0 0 0 0 0 0 0 0 0 0 0 0 0 0 0 0 0
0 0 0 0 0 0 1 0 0 0 0 0 0 0 0 0 0 0 0 0 0 0 0 0 0 0 0 0 0 0 0 0 0 0 0 0 0 0 0 0 0 0 0
0 0 0 0 0 1 1 1 0 0 0 0 0 0 0 0 0 0 0 0 0 0 0 0 0 0 0 0 0 0 0 0 0 0 0 0 0 0 0 0 0 0 0
0 0 0 0 0 1 1 0 0 0 0 0 0 0 0 0 0 0 0 0 0 0 0 0 0 0 0 0 0 0 0 0 0 0 0 0 0 0 0 0 0 0 0
0 0 0 0 0 1 0 0 0 0 0 0 0 0 0 0 0 0 0 0 0 0 0 0 0 0 0 0 0 0 0 0 0 0 0 0 0 0 0 0 0 0 0
0 0 0 0 0 0 0 0 0 0 0 0 0 0 0 0 0 0 0 0 0 0 0 0 0 0 0 0 0 0 0 0 0 0 0 0 0 0 0 0 0 0 0
0 0 0 0 0 0 0 0 0 0 0 0 0 0 0 0 0 0 0 0 0 0 0 0 0 0 0 0 0 0 0 0 0 0 0 0 0 0 0 0 0 0 0
0 0 0 0 0 0 0 0 0 0 0 0 0 0 0 0 0 0 0 0 0 0 0 0 0 0 0 0 0 0 0 0 0 0 0 0 0 0 0 0 0 0 0
0 0 0 0 0 0 0 0 0 0 0 0 0 0 0 0 0 0 0 0 0 0 0 0 0 0 0 0 0 0 0 0 0 0 0 0 0 0 0 0 0 0 0
0 0 0 0 0 0 0 0 0 0 0 0 0 0 0 0 0 0 0 0 0 0 0 0 0 0 0 0 0 0 0 0 0 0 0 0 0 0 0 0 0 0 0
0 0 0 0 0 0 0 0 0 0 0 0 0 0 0 0 0 0 0 0 0 0 0 0 0 0 0 0 0 0 0 0 0 0 0 0 0 0 0 0 0 0 0
0 0 0 0 0 0 0 0 0 0 0 0 0 0 0 0 0 0 0 0 0 0 0 0 0 0 0 0 0 0 0 0 0 0 0 0 0 0 0 0 0 0 0
0 0 0 0 0 0 0 0 0 0 0 0 0 0 0 0 0 0 0 0 0 0 0 0 0 0 0 0 0 0 0 0 0 0 0 0 0 0 0 0 0 0 0
0 0 0 0 0 0 0 0 0 0 0 0 0 0 0 0 0 0 0 0 0 0 0 0 0 0 0 0 0 0 0 0 0 0 0 0 0 0 0 0 0 0 0
0 0 0 0 0 0 0 0 0 0 0 0 0 0 0 0 0 0 0 0 0 0 0 0 0 0 0 0 0 0 0 0 0 0 0 0 0 0 0 0 0 0 0
0 0 0 0 0 0 0 0 0 0 0 0 0 0 0 0 0 0 0 0 0 0 0 0 0 0 0 0 0 0 0 0 0 0 0 0 0 0 0 0 0 0 0
0 0 0 0 0 0 0 0 0 0 0 0 0 0 0 0 0 0 0 0 0 0 0 0 0 0 0 0 0 0 0 0 0 0 0 0 0 0 0 0 0 0 0
0 0 0 0 0 0 0 0 0 0 0 0 0 0 0 0 0 0 0 0 0 0 0 0 0 0 0 0 0 0 0 0 0 0 0 0 0 0 0 0 0 0 0
Wind_Speed
7 7 6 6 6 5 5 5 4 3 2 1 1 1 1 1 1 1 1 1 1 2 2 2 3 3 2 3 3 3 4 3 2 3 4 5 5 5 4 4 4 3 4
7 7 6 5 5 5 5 4 4 3 2 1 0 0 0 1 1 1 1 1 1 2 2 2 2 3 2 2 3 3 3 3 2 2 3 3 3 2 4 3 3 3 3
6 7 6 6 6 5 4 3 4 3 2 1 0 0 0 0 0 1 1 1 0 0 1 2 2 3 3 3 3 2 3 3 3 1 2 3 3 3 2 3 3 2 3
5 5 5 5 5 4 4 4 3 3 2 1 0 0 0 1 0 0 1 1 0 0 1 2 3 3 3 3 4 3 3 3 3 2 1 2 3 3 3 2 2 3 3
4 5 5 5 5 4 4 4 4 3 2 1 1 0 1 1 1 1 1 0 0 0 1 1 2 3 2 3 3 3 3 2 3 3 3 3 2 3 3 4 4 3 3
4 5 5 5 4 4 4 5 4 3 2 2 1 0 1 1 1 1 0 1 0 0 1 1 2 2 2 3 3 2 3 2 3 3 3 3 2 3 3 4 4 4 3
4 4 4 4 4 4 4 4 4 3 3 2 1 0 0 1 0 1 1 0 0 0 1 1 1 2 2 2 2 2 2 2 2 3 2 2 3 3 3 3 4 4 4
3 2 4 4 3 3 3 3 3 3 2 2 2 0 1 1 0 0 1 0 0 1 1 1 1 2 2 3 2 2 2 2 2 3 3 3 3 3 3 3 3 4 4
2 2 3 3 3 4 3 3 3 3 3 2 2 1 1 1 1 1 1 1 1 0 1 1 2 2 2 2 3 2 2 2 2 2 3 3 2 2 3 2 2 3 4
3 3 2 3 3 3 3 3 2 2 2 2 1 1 1 0 1 1 1 1 1 1 1 1 1 2 2 2 2 3 2 2 2 2 2 3 2 2 2 2 3 3 3
3 2 2 3 3 3 3 3 3 2 2 1 1 1 1 1 1 1 1 1 1 2 2 2 2 2 2 2 2 3 3 3 3 3 3 3 3 3 3 2 3 3 3
2 2 2 1 2 3 2 2 2 2 2 1 1 1 1 1 1 1 1 1 1 2 2 2 2 2 2 2 3 4 4 4 4 4 3 4 4 4 3 3 3 3 3
2 1 0 1 2 2 2 1 1 2 2 1 1 0 1 1 1 1 1 1 2 2 2 2 2 2 2 2 3 3 4 4 4 4 3 3 4 4 3 4 4 4 4
2 1 1 1 2 2 2 1 1 1 1 0 0 1 2 2 2 1 1 1 1 2 2 2 2 2 2 3 3 4 5 5 5 4 4 3 3 3 4 4 4 4 4
3 3 2 1 1 1 1 1 1 1 0 1 1 1 2 2 1 1 1 1 2 2 1 1 2 2 2 3 4 5 6 5 6 5 4 4 4 4 4 4 4 5 4
4 4 3 1 0 0 1 1 0 1 1 2 3 2 1 2 2 1 0 0 1 1 1 2 2 3 3 3 4 4 5 5 6 6 5 5 4 4 5 7 7 6 5
3 3 3 1 1 1 1 0 1 1 2 2 3 1 1 2 2 1 1 1 1 1 1 2 2 2 2 3 4 6 5 6 5 5 5 6 5 5 5 6 7 7 7
2 2 2 1 0 1 1 1 2 2 3 2 2 1 2 2 1 0 1 1 1 1 2 2 2 2 3 3 4 7 5 5 5 5 5 4 4 5 6 6 6 5 4
2 1 1 1 0 1 1 1 2 2 3 2 2 2 2 2 1 1 1 1 1 2 3 3 3 3 2 2 4 5 4 4 6 5 4 4 4 5 6 6 6 6 5
2 1 1 0 0 0 1 2 2 2 3 2 1 1 2 2 1 1 2 2 2 3 3 3 2 2 2 2 3 3 4 4 5 4 3 3 3 5 5 4 5 6 6
2 2 1 0 1 1 1 2 2 3 2 1 1 0 1 2 2 1 2 3 3 2 2 3 3 2 2 3 3 2 3 4 5 5 4 3 4 6 6 5 5 7 7
2 2 1 0 0 1 1 2 2 2 1 1 1 1 1 2 1 1 2 2 2 2 2 2 2 2 1 1 1 3 4 5 5 5 5 5 8 9 9 6 7 9 7
2 1 0 0 1 1 2 3 3 2 2 1 1 1 1 1 2 2 2 2 2 2 2 1 1 1 1 1 1 3 6 6 4 5 8 9 10 9 7 7 7 6 4
2 1 1 1 1 2 3 3 3 2 2 1 1 1 1 2 2 2 2 1 1 1 1 2 2 2 2 3 3 3 4 5 5 5 8 9 8 6 6 6 4 3 3
2 2 2 2 3 3 3 3 2 2 1 2 2 2 2 2 2 2 1 1 1 1 1 2 2 3 3 2 3 3 4 5 5 6 5 4 3 3 3 3 3 3 3
2 2 2 3 3 3 3 3 2 2 1 1 2 2 2 2 2 2 1 1 1 1 1 1 1 2 1 3 5 7 8 8 7 4 4 4 4 4 4 4 4 4 4
Wind_Direction
115 114 117 120 121 120 115 113 109 104 103 124 180 191 191 187 153 115 83 70 32 335 299 316 312 301 296 297 301 290 290 282 277 286 285 275 258 250 252 252 256 256 254
123 125 130 131 129 126 123 123 118 115 108 87 184 214 232 204 132 92 90 60 41 333 326 325 309 309 301 302 297 294 291 296 302 293 300 295 284 271 270 254 248 252 250
130 132 137 141 131 130 132 124 115 106 93 58 64 5 217 272 128 167 125 96 71 352 338 339 327 320 312 312 302 303 307 304 306 282 279 294 294 308 271 267 264 262 258
109 116 125 129 135 137 135 127 120 117 115 152 147 238 213 240 94 55 103 54 44 50 14 353 346 326 328 332 324 345 315 307 309 312 278 260 283 297 306 292 276 274 262
108 116 115 120 129 132 128 124 119 117 116 109 116 163 345 338 354 37 80 251 266 66 24 15 345 328 336 338 334 329 321 314 317 316 311 297 289 275 281 295 299 285 267
102 113 117 116 115 121 127 126 126 123 123 131 135 148 0 345 357 7 48 279 149 90 21 15 351 333 337 328 320 315 321 325 329 317 310 312 306 300 288 287 299 300 291
99 112 119 118 117 113 119 132 135 142 140 137 113 40 351 295 139 273 215 255 302 96 24 0 336 329 320 310 317 314 316 322 321 307 305 308 299 298 293 290 297 302 301
85 103 112 115 123 125 136 131 138 135 136 138 133 104 347 305 356 324 295 275 301 58 39 324 318 317 318 326 325 315 320 333 316 316 314 299 293 295 289 285 291 301 303
79 95 106 106 113 120 122 127 116 125 136 147 147 137 96 335 338 333 318 342 356 346 342 305 309 310 316 319 319 322 325 325 312 312 307 301 292 289 288 281 271 273 295
60 75 104 109 115 119 109 104 115 117 134 163 188 151 148 271 283 296 330 325 323 329 284 289 298 298 307 323 327 316 313 310 302 295 306 310 307 304 288 286 286 270 269
47 54 83 108 117 121 120 118 123 144 147 139 172 171 187 244 249 243 294 287 308 299 298 312 306 305 309 320 312 305 307 309 312 311 319 316 305 315 309 299 288 283 281
52 39 53 103 125 121 122 126 147 152 160 165 155 209 226 257 260 266 288 302 297 298 313 313 305 307 326 329 315 313 321 315 315 315 314 316 321 326 316 316 305 298 289
48 32 306 139 135 128 134 152 174 166 186 176 135 273 264 273 264 264 288 289 287 289 291 297 299 314 330 327 326 329 324 319 316 310 308 312 317 317 319 317 316 309 305
24 5 9 80 118 137 150 169 190 165 218 174 195 270 264 250 240 246 249 254 270 274 286 302 314 328 345 348 349 339 324 320 318 314 308 301 302 304 312 308 308 309 308
7 5 3 55 96 139 170 187 193 211 257 281 262 265 277 254 231 241 232 239 274 290 305 319 321 325 333 2 356 330 322 320 314 312 312 306 299 293 289 297 303 306 300
3 3 354 5 52 214 240 185 196 270 256 271 277 276 268 276 255 250 222 307 291 316 322 318 323 329 334 343 335 324 315 308 306 310 309 299 284 294 279 273 278 276 280
344 351 340 345 341 313 311 235 224 267 273 272 283 296 289 284 277 306 36 322 319 318 299 297 302 305 306 311 315 314 302 299 300 301 301 308 320 317 306 290 283 275 260
332 335 334 332 16 5 341 252 235 243 264 266 282 295 304 300 293 294 285 277 293 287 283 277 277 280 299 298 308 310 290 292 295 295 295 298 306 315 310 303 300 290 288
345 359 353 345 28 5 321 273 254 238 246 248 261 278 303 313 297 284 285 273 262 270 272 273 272 277 289 283 296 308 301 300 303 306 312 311 312 317 317 310 304 302 304
12 357 347 27 192 251 286 278 266 242 248 245 248 283 303 297 278 269 269 269 261 260 264 271 276 278 278 267 276 299 298 309 315 313 308 314 326 323 329 315 310 306 307
355 350 346 75 184 208 251 284 278 272 265 252 255 315 299 261 250 253 263 264 258 265 270 279 277 268 259 256 263 284 304 314 317 319 321 327 333 327 319 308 291 288 300
348 349 348 6 223 220 237 271 281 276 273 280 278 278 252 265 272 265 272 273 263 263 260 266 278 278 268 52 318 299 291 301 309 311 325 334 326 320 313 306 294 299 304
335 330 259 213 266 248 241 263 265 256 253 250 260 245 246 245 250 246 259 263 260 267 288 289 300 312 353 73 357 313 309 306 298 309 318 317 310 309 307 303 307 308 299
311 299 249 232 254 254 249 256 249 245 232 210 198 228 249 248 257 262 257 261 282 292 318 335 350 352 7 29 16 344 328 325 321 320 315 310 309 309 308 311 315 306 317
286 270 247 238 246 242 246 251 238 212 211 202 209 236 244 238 246 255 289 289 330 298 304 339 348 354 355 0 342 326 326 331 335 326 308 309 326 334 337 341 340 337 340
264 250 243 250 244 239 237 224 223 200 176 212 231 246 243 239 234 223 234 256 219 252 274 285 309 338 335 330 329 321 316 310 314 317 307 326 340 346 347 349 351 352 348